Tracking 29892 objects as of 21-Nov-2024
HD Live streaming from Space Station
objects crossing your sky now

CZ-6A DEB

Track CZ-6A DEB now!
10-day predictions


NORAD ID: 55892
Int'l Code: 2022-151AAQ
Perigee: 821.6 km
Apogee: 1,015.0 km
Inclination: 98.8 °
Period: 103.2 minutes
Semi major axis: 7289 km
RCS: Unknown
Launch date: November 11, 2022
Source: People's Republic of China (PRC)
Launch site: Taiyaun Space Center, China (TSC)

Note: This is SATELLITE DEBRIS
Your satellite tracking list
Your tracking list is empty




NASA's NSSDC Master Catalog

Two Line Element Set (TLE):
1 55892U 22151AAQ 24324.91667345  .00004316  00000-0  30077-2 0  9999
2 55892  98.8373 302.3219 0132677 224.6789 134.3622 13.94998684 97450
Source of the keplerian elements: AFSPC